AFR452 OMDB-LTFM

Flight info

Callsign AFR452
Flight time N/A
Altitude 36000
Route RIDAP M557 TUMAK L602 RALKA G795 TASMI/N0432F220 L602 ALPET/N0478F360 L718 DEBNI DCT SEVKU/N0466F380 L718 KABAN UL718 ULSAB UG8 GEM UT32 BUK UA4 ERSEN
Aircraft A339/H-SADE1E2E3GHIJ3J5M1P2RWXY/LB2D1

Departure

Time 2026-04-25 13:37
Airport Dubai International Airport (OMDB)

Arrival

Time N/A
Airport İstanbul Airport (LTFM)
Time Latitude Longitude Altitude Speed Heading
2026-04-25 13:15 25.25988 55.34298 33 ft 0 kts 209°
2026-04-25 13:22 25.26003 55.34307 32 ft 4 kts 209°
2026-04-25 13:22 25.26026 55.34321 32 ft 4 kts 213°
2026-04-25 13:23 25.26066 55.34338 31 ft 4 kts 149°
2026-04-25 13:23 25.26082 55.34323 30 ft 4 kts 115°
2026-04-25 13:23 25.26088 55.34307 29 ft 0 kts 120°
2026-04-25 13:25 25.26084 55.34314 30 ft 3 kts 120°
2026-04-25 13:26 25.26076 55.34331 30 ft 4 kts 120°
2026-04-25 13:26 25.26064 55.34353 31 ft 6 kts 120°
2026-04-25 13:26 25.26038 55.34402 32 ft 9 kts 120°
2026-04-25 13:26 25.26001 55.34473 32 ft 13 kts 120°
2026-04-25 13:27 25.25939 55.34586 31 ft 19 kts 121°
2026-04-25 13:27 25.25863 55.34720 29 ft 22 kts 123°
2026-04-25 13:27 25.25782 55.34866 28 ft 22 kts 121°
2026-04-25 13:27 25.25703 55.34956 27 ft 15 kts 157°
2026-04-25 13:28 25.25646 55.34927 27 ft 9 kts 217°
2026-04-25 13:28 25.25625 55.34910 27 ft 0 kts 217°
2026-04-25 13:28 25.25613 55.34903 27 ft 4 kts 207°
2026-04-25 13:28 25.25611 55.34902 27 ft 1 kts 204°
2026-04-25 13:29 25.25543 55.34915 30 ft 16 kts 146°
2026-04-25 13:29 25.25559 55.34969 28 ft 11 kts 31°
2026-04-25 13:29 25.25606 55.34993 30 ft 0 kts 35°
2026-04-25 13:30 25.25610 55.34996 30 ft 0 kts 34°
2026-04-25 13:30 25.25614 55.34999 28 ft 3 kts 34°
2026-04-25 13:30 25.25640 55.35019 29 ft 7 kts 34°
2026-04-25 13:31 25.25751 55.35199 24 ft 17 kts 61°
2026-04-25 13:31 25.25837 55.35264 21 ft 14 kts 30°
2026-04-25 13:31 25.25891 55.35301 24 ft 9 kts 32°
2026-04-25 13:31 25.25948 55.35341 25 ft 11 kts 32°
2026-04-25 13:32 25.26002 55.35392 28 ft 7 kts 58°
2026-04-25 13:32 25.26013 55.35434 24 ft 1 kts 77°
2026-04-25 13:32 25.26007 55.35470 24 ft 10 kts 102°
2026-04-25 13:32 25.25946 55.35612 26 ft 33 kts 120°
2026-04-25 13:33 25.25791 55.35898 25 ft 50 kts 122°
2026-04-25 13:33 25.25611 55.36220 29 ft 48 kts 122°
2026-04-25 13:33 25.25430 55.36537 28 ft 49 kts 121°
2026-04-25 13:33 25.25320 55.36734 29 ft 26 kts 121°
2026-04-25 13:34 25.25299 55.36772 30 ft 14 kts 120°
2026-04-25 13:34 25.25226 55.36906 32 ft 27 kts 122°
2026-04-25 13:34 25.25061 55.37205 40 ft 54 kts 122°
2026-04-25 13:34 25.24880 55.37534 44 ft 46 kts 121°
2026-04-25 13:35 25.24732 55.37802 24 ft 27 kts 121°
2026-04-25 13:35 25.24679 55.37920 46 ft 9 kts 92°
2026-04-25 13:35 25.24724 55.37974 45 ft 12 kts 24°
2026-04-25 13:35 25.24804 55.37991 46 ft 8 kts 342°
2026-04-25 13:36 25.24832 55.37963 46 ft 11 kts 311°
2026-04-25 13:36 25.25028 55.37623 46 ft 91 kts 301°
2026-04-25 13:36 25.25484 55.36799 38 ft 156 kts 301°
2026-04-25 13:36 25.26109 55.35689 457 ft 174 kts 303°
2026-04-25 13:37 25.26740 55.34482 934 ft 192 kts 301°
2026-04-25 13:37 25.27460 55.33146 1321 ft 213 kts 303°
2026-04-25 13:37 25.28272 55.31710 1806 ft 226 kts 303°
2026-04-25 13:37 25.29110 55.30239 2548 ft 228 kts 303°
2026-04-25 13:38 25.29991 55.28767 3247 ft 230 kts 307°
2026-04-25 13:38 25.30925 55.27316 3950 ft 233 kts 306°
2026-04-25 13:38 25.31869 55.25846 4706 ft 235 kts 305°
2026-04-25 13:38 25.32807 55.24381 5411 ft 237 kts 304°
2026-04-25 13:39 25.33777 55.22862 6079 ft 240 kts 304°
2026-04-25 13:39 25.34743 55.21341 6710 ft 243 kts 304°
2026-04-25 13:39 25.35578 55.19717 7302 ft 245 kts 288°
2026-04-25 13:39 25.35837 55.17869 7926 ft 245 kts 268°
2026-04-25 13:40 25.35763 55.15945 8291 ft 260 kts 267°
2026-04-25 13:40 25.35678 55.13875 8476 ft 279 kts 267°
2026-04-25 13:40 25.35593 55.11704 8990 ft 284 kts 267°
2026-04-25 13:40 25.35511 55.09509 9617 ft 287 kts 267°
2026-04-25 13:41 25.35430 55.07296 10185 ft 290 kts 267°
2026-04-25 13:41 25.35348 55.05004 10391 ft 308 kts 267°
2026-04-25 13:41 25.35260 55.02568 10555 ft 326 kts 267°
2026-04-25 13:41 25.35169 55.00036 10775 ft 340 kts 267°
2026-04-25 13:42 25.35074 54.97409 11295 ft 343 kts 267°
2026-04-25 13:42 25.34978 54.94766 11836 ft 346 kts 267°
2026-04-25 13:42 25.34974 54.92092 12363 ft 350 kts 272°
2026-04-25 13:42 25.35313 54.89410 12907 ft 354 kts 281°
2026-04-25 13:43 25.35992 54.86783 13430 ft 358 kts 287°
2026-04-25 13:43 25.36760 54.84147 13940 ft 361 kts 286°
2026-04-25 13:43 25.37524 54.81496 14472 ft 363 kts 286°
2026-04-25 13:43 25.38287 54.78832 15010 ft 364 kts 286°
2026-04-25 13:44 25.39051 54.76157 15517 ft 366 kts 286°
2026-04-25 13:44 25.39821 54.73460 16047 ft 368 kts 285°
2026-04-25 13:44 25.40592 54.70757 16550 ft 370 kts 285°
2026-04-25 13:44 25.41369 54.68027 17061 ft 372 kts 285°
2026-04-25 13:45 25.42150 54.65286 17566 ft 375 kts 285°
2026-04-25 13:45 25.42935 54.62526 18087 ft 377 kts 285°
2026-04-25 13:45 25.43727 54.59753 18550 ft 379 kts 285°
2026-04-25 13:45 25.44531 54.56973 19052 ft 379 kts 285°
2026-04-25 13:46 25.45339 54.54194 19529 ft 381 kts 285°
2026-04-25 13:46 25.46234 54.51427 20015 ft 385 kts 293°
2026-04-25 13:46 25.47762 54.48970 20517 ft 393 kts 310°
2026-04-25 13:46 25.49923 54.47081 21018 ft 402 kts 327°
2026-04-25 13:47 25.52543 54.45928 21489 ft 412 kts 343°
2026-04-25 13:47 25.55340 54.45192 21923 ft 412 kts 336°
2026-04-25 13:47 25.57871 54.43777 22410 ft 405 kts 321°
2026-04-25 13:47 25.59930 54.41692 22931 ft 399 kts 306°
2026-04-25 13:48 25.61437 54.39141 23443 ft 395 kts 296°
2026-04-25 13:48 25.62671 54.36424 23842 ft 395 kts 290°
2026-04-25 13:48 25.63582 54.33546 24225 ft 395 kts 282°
2026-04-25 13:48 25.64084 54.30560 24633 ft 395 kts 274°
2026-04-25 13:49 25.64161 54.27513 25027 ft 396 kts 265°
2026-04-25 13:49 25.63811 54.24483 25420 ft 398 kts 257°
2026-04-25 13:49 25.63090 54.21519 25820 ft 400 kts 253°
2026-04-25 13:49 25.62309 54.18554 26219 ft 402 kts 253°
2026-04-25 13:50 25.61529 54.15571 26616 ft 404 kts 253°
2026-04-25 13:50 25.60744 54.12567 27014 ft 407 kts 253°
2026-04-25 13:50 25.60114 54.09505 27398 ft 410 kts 261°
2026-04-25 13:50 25.59987 54.06343 27797 ft 414 kts 271°
2026-04-25 13:51 25.60391 54.03171 28197 ft 419 kts 281°
2026-04-25 13:51 25.61240 54.00058 28585 ft 423 kts 285°
2026-04-25 13:51 25.62137 53.96945 28945 ft 426 kts 284°
2026-04-25 13:51 25.63034 53.93808 29323 ft 428 kts 284°
2026-04-25 13:52 25.63935 53.90647 29698 ft 431 kts 284°
2026-04-25 13:52 25.64838 53.87473 30061 ft 433 kts 284°
2026-04-25 13:52 25.65746 53.84278 30446 ft 435 kts 284°
2026-04-25 13:52 25.66656 53.81076 30827 ft 436 kts 284°
2026-04-25 13:53 25.67566 53.77869 31207 ft 437 kts 284°
2026-04-25 13:53 25.68478 53.74649 31569 ft 439 kts 284°
2026-04-25 13:53 25.69392 53.71421 31941 ft 440 kts 284°
2026-04-25 13:53 25.70296 53.68214 32289 ft 441 kts 284°
2026-04-25 13:54 25.71222 53.64917 32595 ft 443 kts 284°